Time,TemperatureF,DewpointF,PressureIn,WindDirection,WindDirectionDegrees,WindSpeedMPH,WindSpeedGustMPH,Humidity,HourlyPrecipIn,Conditions,Clouds,dailyrainin,SoftwareType,DateUTC
2013-04-30 00:11:00,47.3,21.0,29.55,SSE,168,0.0,-999.0,36,-99.99,,,0.00,weatherlink.com 1.10,2013-04-30 06:11:00,
2013-04-30 00:26:00,46.8,21.0,29.55,SSE,155,0.0,-999.0,36,-99.99,,,0.00,weatherlink.com 1.10,2013-04-30 06:26:00,
2013-04-30 00:41:00,46.4,21.0,29.55,SSE,167,2.0,-999.0,36,-99.99,,,0.00,weatherlink.com 1.10,2013-04-30 06:41:00,
2013-04-30 00:56:00,46.1,21.0,29.55,SSE,160,3.0,-999.0,37,-99.99,,,0.00,weatherlink.com 1.10,2013-04-30 06:56:00,
2013-04-30 01:11:00,46.0,21.0,29.54,South,174,0.0,-999.0,37,-99.99,,,0.00,weatherlink.com 1.10,2013-04-30 07:11:00,
2013-04-30 01:26:00,45.4,20.0,29.53,South,180,3.0,-999.0,37,-99.99,,,0.00,weatherlink.com 1.10,2013-04-30 07:26:00,
2013-04-30 01:41:00,45.2,20.0,29.54,South,180,4.0,-999.0,37,-99.99,,,0.00,weatherlink.com 1.10,2013-04-30 07:41:00,
2013-04-30 01:56:00,44.9,20.0,29.53,South,175,0.0,-999.0,37,-99.99,,,0.00,weatherlink.com 1.10,2013-04-30 07:56:00,
2013-04-30 02:11:00,44.3,20.0,29.55,South,184,0.0,-999.0,38,-99.99,,,0.00,weatherlink.com 1.10,2013-04-30 08:11:00,
2013-04-30 02:26:00,43.8,20.0,29.55,South,170,0.0,-999.0,38,-99.99,,,0.00,weatherlink.com 1.10,2013-04-30 08:26:00,
2013-04-30 02:41:00,43.9,20.0,29.54,SSE,161,0.0,-999.0,38,-99.99,,,0.00,weatherlink.com 1.10,2013-04-30 08:41:00,
2013-04-30 02:56:00,43.3,19.0,29.54,SSE,167,0.0,-999.0,38,-99.99,,,0.00,weatherlink.com 1.10,2013-04-30 08:56:00,
2013-04-30 03:12:00,43.3,19.0,29.55,SE,146,0.0,-999.0,38,-99.99,,,0.00,weatherlink.com 1.10,2013-04-30 09:12:00,
2013-04-30 03:27:00,42.3,19.0,29.55,SSE,150,0.0,-999.0,39,-99.99,,,0.00,weatherlink.com 1.10,2013-04-30 09:27:00,
2013-04-30 03:42:00,41.9,19.0,29.55,South,171,0.0,-999.0,40,-99.99,,,0.00,weatherlink.com 1.10,2013-04-30 09:42:00,
2013-04-30 03:57:00,43.3,18.0,29.55,SSE,164,2.0,-999.0,37,-99.99,,,0.00,weatherlink.com 1.10,2013-04-30 09:57:00,
2013-04-30 04:12:00,43.5,19.0,29.55,South,184,3.0,-999.0,37,-99.99,,,0.00,weatherlink.com 1.10,2013-04-30 10:12:00,
2013-04-30 04:27:00,42.9,19.0,29.55,South,169,0.0,-999.0,38,-99.99,,,0.00,weatherlink.com 1.10,2013-04-30 10:27:00,
2013-04-30 04:42:00,42.5,18.0,29.54,SSE,159,0.0,-999.0,38,-99.99,,,0.00,weatherlink.com 1.10,2013-04-30 10:42:00,
2013-04-30 04:57:00,42.1,19.0,29.54,SE,134,0.0,-999.0,40,-99.99,,,0.00,weatherlink.com 1.10,2013-04-30 10:57:00,
2013-04-30 05:12:00,40.3,19.0,29.53,SE,134,0.0,-999.0,42,-99.99,,,0.00,weatherlink.com 1.10,2013-04-30 11:12:00,
2013-04-30 05:27:00,41.6,18.0,29.55,SSE,168,0.0,-999.0,39,-99.99,,,0.00,weatherlink.com 1.10,2013-04-30 11:27:00,
2013-04-30 05:42:00,41.8,18.0,29.53,South,171,0.0,-999.0,38,-99.99,,,0.00,weatherlink.com 1.10,2013-04-30 11:42:00,
2013-04-30 05:57:00,41.3,18.0,29.53,South,186,2.0,-999.0,39,-99.99,,,0.00,weatherlink.com 1.10,2013-04-30 11:57:00,
2013-04-30 06:12:00,41.3,18.0,29.57,SSE,163,0.0,-999.0,40,-99.99,,,0.00,weatherlink.com 1.10,2013-04-30 12:12:00,
2013-04-30 06:27:00,41.6,18.0,29.57,South,175,0.0,-999.0,38,-99.99,,,0.00,weatherlink.com 1.10,2013-04-30 12:27:00,
2013-04-30 06:42:00,41.6,18.0,29.56,SSE,166,1.0,-999.0,38,-99.99,,,0.00,weatherlink.com 1.10,2013-04-30 12:42:00,
2013-04-30 06:57:00,42.3,18.0,29.56,South,179,3.0,-999.0,38,-99.99,,,0.00,weatherlink.com 1.10,2013-04-30 12:57:00,
2013-04-30 07:12:00,42.9,17.0,29.62,SSE,165,2.0,-999.0,36,-99.99,,,0.00,weatherlink.com 1.10,2013-04-30 13:12:00,
2013-04-30 07:27:00,44.3,17.0,29.60,South,188,0.0,-999.0,34,-99.99,,,0.00,weatherlink.com 1.10,2013-04-30 13:27:00,
2013-04-30 07:42:00,45.2,20.0,29.58,South,188,0.0,-999.0,37,-99.99,,,0.00,weatherlink.com 1.10,2013-04-30 13:42:00,
2013-04-30 07:57:00,46.0,19.0,29.59,SSE,163,0.0,-999.0,34,-99.99,,,0.00,weatherlink.com 1.10,2013-04-30 13:57:00,
2013-04-30 08:12:00,48.0,19.0,29.62,SSE,167,0.0,-999.0,31,-99.99,,,0.00,weatherlink.com 1.10,2013-04-30 14:12:00,
2013-04-30 08:27:00,49.9,18.0,29.61,SSE,163,0.0,-999.0,28,-99.99,,,0.00,weatherlink.com 1.10,2013-04-30 14:27:00,
2013-04-30 08:42:00,50.8,18.0,29.59,WSW,246,0.0,-999.0,27,-99.99,,,0.00,weatherlink.com 1.10,2013-04-30 14:42:00,
2013-04-30 08:57:00,54.5,17.0,29.59,WSW,243,3.0,-999.0,23,-99.99,,,0.00,weatherlink.com 1.10,2013-04-30 14:57:00,
2013-04-30 09:12:00,57.5,17.0,29.58,SW,227,4.0,-999.0,20,-99.99,,,0.00,weatherlink.com 1.10,2013-04-30 15:12:00,
2013-04-30 09:27:00,58.1,17.0,29.57,SSW,202,0.0,-999.0,20,-99.99,,,0.00,weatherlink.com 1.10,2013-04-30 15:27:00,
2013-04-30 09:42:00,58.6,16.0,29.57,SE,126,1.0,-999.0,19,-99.99,,,0.00,weatherlink.com 1.10,2013-04-30 15:42:00,
2013-04-30 09:57:00,59.9,17.0,29.55,SSE,147,2.0,-999.0,19,-99.99,,,0.00,weatherlink.com 1.10,2013-04-30 15:57:00,
2013-04-30 10:12:00,60.2,18.0,29.57,SW,236,9.0,-999.0,19,-99.99,,,0.00,weatherlink.com 1.10,2013-04-30 16:12:00,
2013-04-30 10:27:00,60.9,17.0,29.56,WSW,257,3.0,-999.0,18,-99.99,,,0.00,weatherlink.com 1.10,2013-04-30 16:27:00,
2013-04-30 10:42:00,61.2,17.0,29.57,WSW,248,10.0,-999.0,18,-99.99,,,0.00,weatherlink.com 1.10,2013-04-30 16:42:00,
2013-04-30 10:57:00,61.8,18.0,29.56,WSW,250,14.0,-999.0,18,-99.99,,,0.00,weatherlink.com 1.10,2013-04-30 16:57:00,
2013-04-30 11:12:00,62.9,19.0,29.56,West,267,5.0,-999.0,18,-99.99,,,0.00,weatherlink.com 1.10,2013-04-30 17:12:00,
2013-04-30 11:27:00,62.7,16.0,29.54,SW,232,5.0,-999.0,16,-99.99,,,0.00,weatherlink.com 1.10,2013-04-30 17:27:00,
2013-04-30 11:42:00,64.0,18.0,29.54,SSW,200,9.0,-999.0,17,-99.99,,,0.00,weatherlink.com 1.10,2013-04-30 17:42:00,
2013-04-30 11:57:00,64.3,18.0,29.53,SSE,151,9.0,-999.0,17,-99.99,,,0.00,weatherlink.com 1.10,2013-04-30 17:57:00,
2013-04-30 12:12:00,64.5,19.0,29.53,SSE,155,4.0,-999.0,17,-99.99,,,0.00,weatherlink.com 1.10,2013-04-30 18:12:00,
2013-04-30 12:28:00,64.2,20.0,29.54,South,175,0.0,-999.0,18,-99.99,,,0.00,weatherlink.com 1.10,2013-04-30 18:28:00,
2013-04-30 12:43:00,64.8,17.0,29.53,SW,223,10.0,-999.0,16,-99.99,,,0.00,weatherlink.com 1.10,2013-04-30 18:43:00,
2013-04-30 12:58:00,65.3,18.0,29.53,SW,232,14.0,-999.0,16,-99.99,,,0.00,weatherlink.com 1.10,2013-04-30 18:58:00,
2013-04-30 13:13:00,65.5,18.0,29.51,SW,223,4.0,-999.0,16,-99.99,,,0.00,weatherlink.com 1.10,2013-04-30 19:13:00,
2013-04-30 13:28:00,64.3,16.0,29.51,SW,225,17.0,-999.0,15,-99.99,,,0.00,weatherlink.com 1.10,2013-04-30 19:28:00,
2013-04-30 13:43:00,64.5,16.0,29.53,WNW,291,24.0,-999.0,15,-99.99,,,0.00,weatherlink.com 1.10,2013-04-30 19:43:00,
2013-04-30 13:58:00,64.2,17.0,29.54,SSW,207,1.0,-999.0,16,-99.99,,,0.00,weatherlink.com 1.10,2013-04-30 19:58:00,
2013-04-30 14:13:00,66.0,17.0,29.52,SSW,211,17.0,-999.0,15,-99.99,,,0.00,weatherlink.com 1.10,2013-04-30 20:13:00,
2013-04-30 14:28:00,65.6,13.0,29.52,SSW,209,22.0,-999.0,13,-99.99,,,0.00,weatherlink.com 1.10,2013-04-30 20:28:00,
2013-04-30 14:43:00,65.5,13.0,29.52,WSW,257,18.0,-999.0,13,-99.99,,,0.00,weatherlink.com 1.10,2013-04-30 20:43:00,
2013-04-30 14:58:00,66.1,15.0,29.51,SW,215,0.0,-999.0,14,-99.99,,,0.00,weatherlink.com 1.10,2013-04-30 20:58:00,
2013-04-30 15:13:00,66.3,14.0,29.51,SSE,162,0.0,-999.0,13,-99.99,,,0.00,weatherlink.com 1.10,2013-04-30 21:13:00,
2013-04-30 15:28:00,66.6,14.0,29.51,SSW,203,3.0,-999.0,13,-99.99,,,0.00,weatherlink.com 1.10,2013-04-30 21:28:00,
2013-04-30 15:43:00,66.3,14.0,29.51,SSW,207,10.0,-999.0,13,-99.99,,,0.00,weatherlink.com 1.10,2013-04-30 21:43:00,
2013-04-30 15:58:00,66.8,12.0,29.51,SSW,207,1.0,-999.0,12,-99.99,,,0.00,weatherlink.com 1.10,2013-04-30 21:58:00,
2013-04-30 16:13:00,66.9,14.0,29.49,WSW,251,0.0,-999.0,13,-99.99,,,0.00,weatherlink.com 1.10,2013-04-30 22:13:00,
2013-04-30 16:28:00,65.6,13.0,29.49,South,187,5.0,-999.0,13,-99.99,,,0.00,weatherlink.com 1.10,2013-04-30 22:28:00,
2013-04-30 16:43:00,66.8,12.0,29.50,SW,222,11.0,-999.0,12,-99.99,,,0.00,weatherlink.com 1.10,2013-04-30 22:43:00,
2013-04-30 16:58:00,65.5,11.0,29.50,South,180,5.0,-999.0,12,-99.99,,,0.00,weatherlink.com 1.10,2013-04-30 22:58:00,
2013-04-30 17:13:00,65.3,13.0,29.52,SSW,192,3.0,-999.0,13,-99.99,,,0.00,weatherlink.com 1.10,2013-04-30 23:13:00,
2013-04-30 17:28:00,63.9,12.0,29.52,SW,236,7.0,-999.0,13,-99.99,,,0.00,weatherlink.com 1.10,2013-04-30 23:28:00,
2013-04-30 17:43:00,64.2,12.0,29.53,SW,227,5.0,-999.0,13,-99.99,,,0.00,weatherlink.com 1.10,2013-04-30 23:43:00,
2013-04-30 17:58:00,65.2,11.0,29.53,SSW,196,5.0,-999.0,12,-99.99,,,0.00,weatherlink.com 1.10,2013-04-30 23:58:00,
2013-04-30 18:13:00,64.8,11.0,29.53,WSW,246,12.0,-999.0,12,-99.99,,,0.00,weatherlink.com 1.10,2013-05-01 00:13:00,
2013-04-30 18:28:00,65.2,11.0,29.52,WSW,239,13.0,-999.0,12,-99.99,,,0.00,weatherlink.com 1.10,2013-05-01 00:28:00,
2013-04-30 18:43:00,63.1,11.0,29.53,WSW,239,4.0,-999.0,13,-99.99,,,0.00,weatherlink.com 1.10,2013-05-01 00:43:00,
2013-04-30 18:58:00,63.7,12.0,29.53,SSW,213,0.0,-999.0,13,-99.99,,,0.00,weatherlink.com 1.10,2013-05-01 00:58:00,
2013-04-30 19:13:00,62.6,11.0,29.49,SW,216,9.0,-999.0,13,-99.99,,,0.00,weatherlink.com 1.10,2013-05-01 01:13:00,
2013-04-30 19:28:00,61.5,12.0,29.50,SSW,212,1.0,-999.0,14,-99.99,,,0.00,weatherlink.com 1.10,2013-05-01 01:28:00,
2013-04-30 19:43:00,60.9,11.0,29.51,West,260,0.0,-999.0,14,-99.99,,,0.00,weatherlink.com 1.10,2013-05-01 01:43:00,
2013-04-30 19:58:00,60.1,12.0,29.52,South,172,0.0,-999.0,15,-99.99,,,0.00,weatherlink.com 1.10,2013-05-01 01:58:00,
2013-04-30 20:13:00,59.3,13.0,29.48,SW,232,0.0,-999.0,16,-99.99,,,0.00,weatherlink.com 1.10,2013-05-01 02:13:00,
2013-04-30 20:28:00,58.3,12.0,29.48,WSW,246,0.0,-999.0,16,-99.99,,,0.00,weatherlink.com 1.10,2013-05-01 02:28:00,
2013-04-30 20:43:00,57.6,11.0,29.50,West,261,4.0,-999.0,16,-99.99,,,0.00,weatherlink.com 1.10,2013-05-01 02:43:00,
2013-04-30 20:58:00,56.7,11.0,29.52,NNW,331,4.0,-999.0,16,-99.99,,,0.00,weatherlink.com 1.10,2013-05-01 02:58:00,
2013-04-30 21:13:00,58.0,10.0,29.45,WSW,245,0.0,-999.0,15,-99.99,,,0.00,weatherlink.com 1.10,2013-05-01 03:13:00,
2013-04-30 21:28:00,58.0,10.0,29.45,SSW,198,0.0,-999.0,15,-99.99,,,0.00,weatherlink.com 1.10,2013-05-01 03:28:00,
2013-04-30 21:43:00,57.2,10.0,29.46,South,169,4.0,-999.0,15,-99.99,,,0.00,weatherlink.com 1.10,2013-05-01 03:43:00,
2013-04-30 21:58:00,56.6,11.0,29.46,South,169,0.0,-999.0,16,-99.99,,,0.00,weatherlink.com 1.10,2013-05-01 03:58:00,
2013-04-30 22:13:00,54.5,10.0,29.44,SSE,152,0.0,-999.0,17,-99.99,,,0.00,weatherlink.com 1.10,2013-05-01 04:13:00,
2013-04-30 22:28:00,53.3,9.0,29.48,SSE,152,0.0,-999.0,17,-99.99,,,0.00,weatherlink.com 1.10,2013-05-01 04:28:00,
2013-04-30 22:43:00,52.6,10.0,29.48,SW,235,0.0,-999.0,18,-99.99,,,0.00,weatherlink.com 1.10,2013-05-01 04:43:00,
2013-04-30 22:58:00,52.5,10.0,29.45,SW,235,0.0,-999.0,18,-99.99,,,0.00,weatherlink.com 1.10,2013-05-01 04:58:00,
2013-04-30 23:13:00,51.4,10.0,29.47,WSW,246,0.0,-999.0,19,-99.99,,,0.00,weatherlink.com 1.10,2013-05-01 05:13:00,
2013-04-30 23:28:00,49.8,10.0,29.48,South,181,0.0,-999.0,20,-99.99,,,0.00,weatherlink.com 1.10,2013-05-01 05:28:00,
2013-04-30 23:43:00,49.4,12.0,29.50,SSW,192,0.0,-999.0,22,-99.99,,,0.00,weatherlink.com 1.10,2013-05-01 05:43:00,
2013-04-30 23:58:00,52.5,9.0,29.47,SW,217,1.0,-999.0,17,-99.99,,,0.00,weatherlink.com 1.10,2013-05-01 05:58:00,